CSB0401 EPSC-EPGD

Flight info

Callsign CSB0401
Flight time 0h 35m
Altitude 25000
Route UNVOX L730 KOSEX
Aircraft A320/M-SDE3FGHIRWY/LB1

Departure

Time 2026-05-04 13:39
Airport Solidarity Szczecin–Goleniów Airport (EPSC)

Arrival

Time 2026-05-04 14:14
Airport Gdańsk Lech Wałęsa Airport (EPGD)
Time Latitude Longitude Altitude Speed Heading
2026-05-04 13:14 53.59249 14.89405 105 ft 0 kts 49°
2026-05-04 13:28 53.59241 14.89390 132 ft 4 kts 49°
2026-05-04 13:29 53.59223 14.89356 132 ft 4 kts 48°
2026-05-04 13:29 53.59208 14.89328 132 ft 3 kts 49°
2026-05-04 13:29 53.59194 14.89291 132 ft 4 kts 71°
2026-05-04 13:29 53.59188 14.89252 132 ft 1 kts 84°
2026-05-04 13:30 53.59188 14.89244 132 ft 0 kts 84°
2026-05-04 13:32 53.59187 14.89249 132 ft 2 kts 91°
2026-05-04 13:32 53.59173 14.89294 132 ft 7 kts 130°
2026-05-04 13:32 53.59125 14.89385 133 ft 16 kts 132°
2026-05-04 13:33 53.59055 14.89518 135 ft 14 kts 131°
2026-05-04 13:33 53.58997 14.89629 137 ft 11 kts 131°
2026-05-04 13:33 53.58951 14.89718 138 ft 9 kts 131°
2026-05-04 13:33 53.58916 14.89785 139 ft 8 kts 131°
2026-05-04 13:34 53.58861 14.89891 140 ft 16 kts 131°
2026-05-04 13:34 53.58768 14.90072 143 ft 23 kts 131°
2026-05-04 13:34 53.58668 14.90266 146 ft 20 kts 131°
2026-05-04 13:34 53.58571 14.90453 148 ft 23 kts 131°
2026-05-04 13:35 53.58467 14.90656 151 ft 21 kts 131°
2026-05-04 13:35 53.58299 14.90981 156 ft 16 kts 131°
2026-05-04 13:35 53.58216 14.91143 159 ft 18 kts 131°
2026-05-04 13:36 53.58139 14.91292 160 ft 16 kts 131°
2026-05-04 13:36 53.58072 14.91420 162 ft 14 kts 131°
2026-05-04 13:36 53.58007 14.91545 163 ft 17 kts 131°
2026-05-04 13:36 53.57933 14.91690 165 ft 15 kts 131°
2026-05-04 13:37 53.57869 14.91776 165 ft 11 kts 174°
2026-05-04 13:37 53.57812 14.91719 165 ft 9 kts 223°
2026-05-04 13:37 53.57768 14.91652 165 ft 8 kts 224°
2026-05-04 13:37 53.57767 14.91589 166 ft 6 kts 302°
2026-05-04 13:38 53.57807 14.91509 165 ft 19 kts 311°
2026-05-04 13:38 53.58064 14.91022 161 ft 90 kts 311°
2026-05-04 13:38 53.58605 14.89960 150 ft 146 kts 309°
2026-05-04 13:38 53.59315 14.88575 522 ft 165 kts 313°
2026-05-04 13:39 53.60213 14.87195 1083 ft 183 kts 316°
2026-05-04 13:39 53.61105 14.85660 1917 ft 184 kts 308°
2026-05-04 13:39 53.61979 14.83896 2277 ft 211 kts 308°
2026-05-04 13:39 53.62943 14.81886 2873 ft 226 kts 307°
2026-05-04 13:40 53.63821 14.79689 3825 ft 228 kts 288°
2026-05-04 13:40 53.63843 14.77036 4635 ft 238 kts 251°
2026-05-04 13:40 53.62906 14.74649 5285 ft 253 kts 227°
2026-05-04 13:40 53.61567 14.72686 6237 ft 257 kts 220°
2026-05-04 13:41 53.60110 14.70935 7173 ft 260 kts 211°
2026-05-04 13:41 53.58333 14.70160 8034 ft 272 kts 185°
2026-05-04 13:41 53.56444 14.70758 8910 ft 285 kts 160°
2026-05-04 13:42 53.53555 14.75652 10368 ft 315 kts 132°
2026-05-04 13:42 53.52102 14.78566 10632 ft 337 kts 135°
2026-05-04 13:42 53.50487 14.81593 10918 ft 357 kts 136°
2026-05-04 13:42 53.48798 14.84712 11529 ft 365 kts 136°
2026-05-04 13:43 53.47129 14.87975 12251 ft 372 kts 129°
2026-05-04 13:43 53.45845 14.91795 12945 ft 382 kts 115°
2026-05-04 13:43 53.45110 14.96120 13660 ft 390 kts 101°
2026-05-04 13:43 53.44985 15.00701 14289 ft 397 kts 86°
2026-05-04 13:44 53.45452 15.05299 14913 ft 402 kts 78°
2026-05-04 13:44 53.46055 15.09897 15540 ft 406 kts 78°
2026-05-04 13:44 53.46657 15.14555 16159 ft 410 kts 78°
2026-05-04 13:44 53.47255 15.19253 16767 ft 414 kts 78°
2026-05-04 13:45 53.47853 15.24011 17365 ft 419 kts 79°
2026-05-04 13:45 53.48453 15.28823 17974 ft 423 kts 79°
2026-05-04 13:45 53.49056 15.33677 18525 ft 427 kts 79°
2026-05-04 13:45 53.49663 15.38574 19055 ft 431 kts 79°
2026-05-04 13:46 53.50277 15.43521 19606 ft 434 kts 79°
2026-05-04 13:46 53.50934 15.48494 20133 ft 438 kts 75°
2026-05-04 13:46 53.51980 15.53313 20662 ft 442 kts 64°
2026-05-04 13:46 53.53489 15.57823 21176 ft 444 kts 55°
2026-05-04 13:47 53.55231 15.62132 21680 ft 447 kts 54°
2026-05-04 13:47 53.56982 15.66485 22166 ft 451 kts 55°
2026-05-04 13:47 53.58741 15.70879 22647 ft 454 kts 55°
2026-05-04 13:47 53.60509 15.75305 22890 ft 457 kts 55°
2026-05-04 13:48 53.62301 15.79804 22944 ft 468 kts 55°
2026-05-04 13:48 53.64122 15.84376 22937 ft 472 kts 55°
2026-05-04 13:48 53.65958 15.88988 22940 ft 474 kts 55°
2026-05-04 13:48 53.67791 15.93608 22941 ft 474 kts 55°
2026-05-04 13:49 53.69621 15.98240 22940 ft 475 kts 55°
2026-05-04 13:49 53.71454 16.02891 22937 ft 475 kts 55°
2026-05-04 13:49 53.73283 16.07532 22937 ft 475 kts 55°
2026-05-04 13:49 53.75118 16.12181 22937 ft 476 kts 55°
2026-05-04 13:50 53.76950 16.16835 22939 ft 476 kts 55°
2026-05-04 13:50 53.78783 16.21494 22937 ft 476 kts 55°
2026-05-04 13:50 53.80613 16.26158 22939 ft 476 kts 55°
2026-05-04 13:50 53.82441 16.30830 22938 ft 476 kts 55°
2026-05-04 13:51 53.84265 16.35505 22937 ft 476 kts 55°
2026-05-04 13:51 53.86064 16.40134 22933 ft 476 kts 56°
2026-05-04 13:51 53.87882 16.44816 22930 ft 476 kts 56°
2026-05-04 13:51 53.89699 16.49510 22930 ft 476 kts 56°
2026-05-04 13:52 53.93339 16.58905 22931 ft 477 kts 55°
2026-05-04 13:52 53.95158 16.63610 22923 ft 477 kts 56°
2026-05-04 13:52 53.96968 16.68310 22119 ft 477 kts 56°
2026-05-04 13:53 53.98779 16.73030 21379 ft 474 kts 56°
2026-05-04 13:53 54.00567 16.77708 20708 ft 470 kts 56°
2026-05-04 13:53 54.02334 16.82343 20070 ft 465 kts 56°
2026-05-04 13:54 54.05814 16.91500 18849 ft 456 kts 56°
2026-05-04 13:54 54.07549 16.96079 18275 ft 452 kts 57°
2026-05-04 13:54 54.09871 17.05878 17163 ft 443 kts 79°
2026-05-04 13:55 54.10282 17.11044 16636 ft 437 kts 85°
2026-05-04 13:55 54.10852 17.21256 15550 ft 429 kts 85°
2026-05-04 13:55 54.11132 17.26308 15001 ft 426 kts 85°
2026-05-04 13:56 54.11410 17.31289 14718 ft 416 kts 85°
2026-05-04 13:56 54.11678 17.36110 14593 ft 402 kts 86°
2026-05-04 13:56 54.12173 17.45220 14344 ft 376 kts 86°
2026-05-04 13:57 54.12406 17.49587 14225 ft 365 kts 86°
2026-05-04 13:57 54.12648 17.53820 14057 ft 351 kts 83°
2026-05-04 13:58 54.13899 17.65834 12620 ft 341 kts 81°
2026-05-04 13:58 54.14738 17.73688 11723 ft 332 kts 81°
2026-05-04 13:58 54.15147 17.77546 11307 ft 331 kts 81°
2026-05-04 13:59 54.15551 17.81411 10922 ft 330 kts 81°
2026-05-04 13:59 54.15950 17.85257 10479 ft 326 kts 81°
2026-05-04 13:59 54.16721 17.92786 9614 ft 320 kts 81°
2026-05-04 14:00 54.17101 17.96523 9191 ft 320 kts 81°
2026-05-04 14:00 54.17857 18.03963 8417 ft 315 kts 81°
2026-05-04 14:00 54.18229 18.07647 8010 ft 314 kts 81°
2026-05-04 14:01 54.18598 18.11308 7637 ft 311 kts 81°
2026-05-04 14:01 54.18966 18.14939 7261 ft 309 kts 81°
2026-05-04 14:01 54.19688 18.22093 6832 ft 303 kts 81°
2026-05-04 14:02 54.20046 18.25644 6766 ft 304 kts 81°
2026-05-04 14:02 54.20403 18.29190 6698 ft 303 kts 81°
2026-05-04 14:02 54.20758 18.32739 6637 ft 303 kts 81°
2026-05-04 14:02 54.21106 18.36278 6575 ft 302 kts 82°
2026-05-04 14:03 54.21451 18.39810 6491 ft 301 kts 81°
2026-05-04 14:03 54.21795 18.43333 6440 ft 300 kts 82°
2026-05-04 14:03 54.22139 18.46840 6377 ft 299 kts 81°
2026-05-04 14:03 54.22484 18.50346 6310 ft 299 kts 81°
2026-05-04 14:04 54.23051 18.56167 6198 ft 299 kts 82°
2026-05-04 14:04 54.23389 18.59639 6114 ft 290 kts 81°
2026-05-04 14:04 54.23707 18.62979 5980 ft 280 kts 85°
2026-05-04 14:05 54.23120 18.69193 5712 ft 258 kts 117°
2026-05-04 14:05 54.22408 18.71990 5593 ft 256 kts 116°
2026-05-04 14:05 54.21704 18.74783 5466 ft 255 kts 116°
2026-05-04 14:06 54.21004 18.77570 5330 ft 255 kts 117°
2026-05-04 14:06 54.20464 18.80420 5213 ft 250 kts 98°
2026-05-04 14:06 54.20606 18.83324 5074 ft 243 kts 71°
2026-05-04 14:06 54.21414 18.85782 4958 ft 234 kts 45°
2026-05-04 14:07 54.22663 18.87390 4837 ft 220 kts 20°
2026-05-04 14:07 54.24114 18.88025 4710 ft 213 kts 357°
2026-05-04 14:07 54.25547 18.87727 4589 ft 205 kts 336°
2026-05-04 14:07 54.26782 18.86619 4461 ft 198 kts 316°
2026-05-04 14:08 54.27821 18.85084 4332 ft 196 kts 309°
2026-05-04 14:08 54.28583 18.83207 4205 ft 191 kts 293°
2026-05-04 14:08 54.29143 18.81143 4083 ft 190 kts 290°
2026-05-04 14:08 54.29670 18.79068 3955 ft 190 kts 290°
2026-05-04 14:09 54.30707 18.74940 3704 ft 188 kts 290°
2026-05-04 14:09 54.31219 18.72896 3439 ft 184 kts 290°
2026-05-04 14:10 54.32201 18.68972 2963 ft 175 kts 291°
2026-05-04 14:10 54.32675 18.67076 2748 ft 172 kts 291°
2026-05-04 14:10 54.33139 18.65216 2507 ft 166 kts 291°
2026-05-04 14:10 54.33582 18.63441 2331 ft 156 kts 290°
2026-05-04 14:11 54.33996 18.61778 2106 ft 148 kts 290°
2026-05-04 14:11 54.34745 18.58769 1737 ft 131 kts 290°
2026-05-04 14:11 54.35100 18.57346 1543 ft 129 kts 290°
2026-05-04 14:12 54.35450 18.55940 1390 ft 129 kts 291°
2026-05-04 14:12 54.35784 18.54526 1204 ft 126 kts 292°
2026-05-04 14:12 54.36488 18.51740 874 ft 127 kts 293°
2026-05-04 14:13 54.36835 18.50343 686 ft 127 kts 291°
2026-05-04 14:13 54.37175 18.48957 532 ft 126 kts 292°
2026-05-04 14:13 54.37502 18.47673 470 ft 105 kts 290°
2026-05-04 14:13 54.37738 18.46676 457 ft 68 kts 293°
2026-05-04 14:14 54.37862 18.46191 457 ft 28 kts 295°
2026-05-04 14:14 54.38028 18.45798 455 ft 11 kts 321°
2026-05-04 14:14 54.38097 18.45709 454 ft 13 kts 332°
2026-05-04 14:15 54.38133 18.45829 456 ft 5 kts 112°
2026-05-04 14:15 54.38102 18.45957 457 ft 9 kts 111°
2026-05-04 14:16 54.38162 18.46102 460 ft 8 kts 28°
2026-05-04 14:16 54.38172 18.46181 459 ft 7 kts 101°
2026-05-04 14:17 54.38128 18.46365 460 ft 8 kts 113°
2026-05-04 14:17 54.38107 18.46454 457 ft 6 kts 109°
2026-05-04 14:17 54.38146 18.46503 460 ft 3 kts 22°
2026-05-04 14:18 54.38147 18.46504 460 ft 0 kts 22°